Regional Weather Roundup
Issued by NWS Grand Forks, ND

Home | Current Version | Previous Version | Text Only | Print | Product List | Glossary Off
Versions: 1 2 3 4 5 6 7 8 9 10 11 12 13 14 15 16 17 18 19 20 21 22 23 24 25 26 27 28 29 30 31 32 33 34 35 36 37 38 39 40 41 42 43 44 45 46 47 48 49 50

212
ASUS43 KFGF 210331
RWRFGF
PRAIRIE TO PINES  WEATHER ROUNDUP
NATIONAL WEATHER SERVICE EASTERN NORTH DAKOTA/GRAND FORKS ND
900 PM CST FRI JAN 20 2017

 **SATELLITE DATA USED TO AUGMENT SKY COVER AT AUTOMATED STATIONS**
 *****  WEATHER ACROSS EASTERN NORTH DAKOTA  *****

CITY           SKY/WX    TMP DP  RH WIND       PRES   REMARKS
GRAND FORKS    CLOUDY    36  32  85 SE10      29.44S FOG
GRAND FRKS AFB CLOUDY    34  34 100 SE10      29.43F
DEVILS LAKE    MIX PCPN  33  32  96 SE9       29.39S VSB 3/4
FARGO          CLOUDY    39  35  86 SE12      29.43F
WAHPETON ARPT  CLOUDY    34  32  93 SE14      29.43F WCI  24
$$

 ***** WEATHER ACROSS CENTRAL AND WESTERN NORTH DAKOTA  *****

CITY           SKY/WX    TMP DP  RH WIND       PRES   REMARKS
BISMARCK       CLOUDY    32  30  92 W3        29.33S FOG
MINOT          CLOUDY    29  27  92 S5        29.34S WCI  24
JAMESTOWN      FOG       33  33 100 SE12      29.35F VSB 3/4 WCI  24
MINOT AFB      CLOUDY    27  25  93 SW9       29.34F FOG     WCI  17
GARRISON         N/A     24  23  96 W8        29.33F WCI  15
WILLISTON      FAIR      27  24  89 S3        29.32F
DICKINSON      FAIR      25  23  92 W8        29.29S WCI  16
HETTINGER      FAIR      27  24  89 NW8       29.33R WCI  19
$$

 *****  OTHER AIRPORT OBSERVATIONS IN OUR AREA  *****

CITY           SKY/WX    TMP DP  RH WIND       PRES   REMARKS
WALHALLA       NOT AVBL
GRAFTON AIRPOR CLOUDY    34  34 100 SE10      29.46S FOG
VALLEY CITY AR FOG       32  32 100 SE12      29.39F VSB 1/4 WCI  23
CANDO          NOT AVBL
CAVALIER APRT  FOG       34  34 100 SE6       29.45S VSB 1
GWINNER        CLOUDY    34  34 100 SE14      29.39S VSB 1/4 WCI  24
SHEYENNE NWR     N/A     34  34 100 SE9       29.95S
ROLLA            N/A    N/A N/A N/A MISG        N/A
 ***** THE ABOVE OBSERVATIONS ARE NON NWS ARE NOT QUALITY
       CONTROLLED AND MAY MIS-REPORT RAIN FOR SNOW...
$$

  *****  WEATHER ACROSS NORTHERN MINNESOTA  *****

CITY           SKY/WX    TMP DP  RH WIND       PRES   REMARKS
FLAG ISLAND    LGT RAIN  34  34 100 SE6       29.51S
WARROAD        LGT RAIN  34  30  86 E6        29.50F
ROSEAU         CLOUDY    36  30  80 SE8       29.49S
HALLOCK        CLOUDY    36  36 100 SE12      29.46S
THF RVR FALLS  CLOUDY    34  33  96 SE17      29.47F WCI  23
BAUDETTE       MIX PCPN  34  33  96 SE8       29.51F
WASKISH        CLOUDY    36  36 100 SE9       29.51F
CROOKSTON      CLOUDY    36  34  93 SE15      29.46S
STEPHEN NDAWN    N/A     34  34 100 E8          N/A
GREENBUSH NDAW   N/A     34  34 100 SE12        N/A
$$
  *****  WEATHER ACROSS CENTRAL AND WEST MINNESOTA  *****

CITY           SKY/WX    TMP DP  RH WIND       PRES   REMARKS
FOSSTON        CLOUDY    34  32  93 E9        29.48S
BEMIDJI        CLOUDY    33  33 100 SE10      29.50S FOG     WCI  25
PARK RAPIDS    CLOUDY    34  32  92 SE9       29.49S FOG
ELBOW LAKE     CLOUDY    34  34 100 SE14      29.45F FOG     WCI  25
WADENA         DRIZZLE   34  34 100 SE9       29.49S
DETROIT LAKES  CLOUDY    34  34 100 SE13      29.47S FOG     WCI  25
MOORHEAD       CLOUDY    36  34  93 SE9       29.44F
FERGUS FALLS   CLOUDY    36  36 100 SE13      29.49S
MORRIS MN      CLOUDY    34  34 100 SE16      29.45F FOG     WCI  23
STAPLES        FOG       34  34 100 SE5       29.51S VSB 3/4
$$
  *****  WEATHER ELSEWHERE ACROSS MINNESOTA  *****

CITY           SKY/WX    TMP DP  RH WIND       PRES   REMARKS
DULUTH         FOG       35  34  96 E9        29.56F VSB 1/4
INTRNTL FALLS  LGT RAIN  35  33  92 SE12      29.55F
ELY            LGT RAIN  34  34 100 SE3       29.58S
CLOQUET        FOG       34  34 100 E5        29.56S VSB 1/4
WHEATON        CLOUDY    43  43 100 SE15      29.45F FOG
BRAINERD       CLOUDY    34  34 100 SE6       29.53S FOG
HIBBING        CLOUDY    32  32 100 SE9       29.56S FOG     WCI  24
ALEXANDRIA     CLOUDY    34  33  96 SE10      29.48F FOG
SAINT CLOUD    FOG       34  34 100 SE6       29.54R VSB 1/4
MINNEAPOLIS    FOG       35  34  96 SE8       29.57R VSB 1
$$

  *****  WEATHER ACROSS SOUTH DAKOTA  *****

CITY           SKY/WX    TMP DP  RH WIND       PRES   REMARKS
SIOUX FALLS    FOG       38  38 100 S10       29.43S VSB 3/4
BROOKINGS      CLOUDY    36  36 100 SE16      29.40S FOG
WATERTOWN      FOG       35  35 100 SE13      29.38F VSB 1/2
HURON          CLOUDY    38  38 100 S14G23    29.35S
SISSETON         N/A     35  35 100 S17       29.41F WCI  25
ABERDEEN       CLOUDY    33  30  88 S3        29.36S FOG
MITCHELL       CLOUDY    40  39  97 S14       29.38S
PIERRE         FOG       22  20  92 SW6       29.33S VSB 1/2 WCI  14
MOBRIDGE       CLOUDY    24  21  88 SE8       29.29S FOG     WCI  15
RAPID CITY     CLOUDY    36  31  82 NW14      29.34S
$$

  *****  SOME WEATHER IN NEARBY STATES *****

CITY           SKY/WX    TMP DP  RH WIND       PRES   REMARKS
GLASGOW MT     FAIR      33  29  85 W5        29.36F
GREAT FALLS MT FAIR      29  19  66 S9        29.33F WCI  20
CHEYENNE WY    FAIR      28  17  63 NW6       29.41S WCI  22
SCOTTSBLUFF NE CLOUDY    35  32  88 NW7       29.40F
OMAHA NE       CLOUDY    41  38  89 SE8       29.45S
DES MOINES IA  DRZL/FOG  41  40  96 E9        29.49F VSB 1/2
DAVENPORT IA   FOG       41  41 100 SE8       29.59R VSB 1/4
CHICAGO IL     DRZL/FOG  42  41  96 NE3       29.64F VSB 1/2
EAU CLAIRE WI  CLOUDY    35  34  96 SE7       29.60R FOG
LA CROSSE WI   CLOUDY    40  36  86 E5        29.60F
$$

  *****  SOME NATIONAL WEATHER *****

CITY           SKY/WX    TMP DP  RH WIND       PRES   REMARKS
LA GUARDIA NY  LGT RAIN  43  39  86 SE5       29.92F FOG
RALEIGH NC     MOCLDY    50  50 100 CALM      29.92S FOG
ATLANTA GA     MOCLDY    63  59  87 S6        29.88R
NEW ORLEANS LA CLOUDY    70  70 100 S10       29.79S FOG
OKLAHOMA CITY  FAIR      54  35  48 SW12      29.54R
ALBUQUERQUE NM CLOUDY    37  35  92 NE3       29.64F
SALT LAKE CITY CLOUDY    36  30  79 SE8       29.34S
LOS ANGELES CA MOCLDY    55  47  74 W23G37    29.51R
BOISE ID       CLOUDY    37  28  70 SE10      29.26R
SEATTLE WA     CLOUDY    46  38  73 S7        29.14R
$$

*** WEATHER ACROSS MANITOBA...SASKATCHEWAN AND ONTARIO ***
                ***ONTARIO***

CITY           SKY/WX    TMP DP  RH WIND       PRES   REMARKS
GERALDTON      FOG       32  32 100 VRB2      29.66S VSB 1/8
THUNDER BAY    LGT RAIN  34  34 100 NE5       29.66F VSB 3/4
SIOUX LOOKOUT  NOT AVBL
TORONTO        DRIZZLE   37  37 100 E2        29.73F FOG
BIG TROUT LK   CLOUDY    25  25 100 SE8       29.68S WCI  16
PICKLE LAKE    NOT AVBL
DRYDEN         LGT RAIN  36  36 100 SE8       29.57S
KENORA         DRIZZLE   36  36 100 SE10      29.52S FOG
$$
                *** MANITOBA***

CITY           SKY/WX    TMP DP  RH WIND       PRES   REMARKS
BRANDON        FOG       28  27  93 E8        29.40F VSB 1/4 WCI  20
DAUPHIN        MOCLDY    25  21  86 CALM      29.41R
ISLAND LAKE    FRZ RAIN  32  32 100 E3        29.58F VSB 1
PILOT MOUND      N/A     32  32 100 SE13        N/A  WCI  22
THE PAS        CLOUDY    25  21  86 E7        29.42S WCI  17
THOMPSON       CLOUDY    27  25  93 E6        29.55R FOG     WCI  20
WINNIPEG       LGT RAIN  36  34  93 SE12      29.47
LYNN LAKE      CLOUDY    27  27 100 SE10G18   29.48S FOG     WCI  17
CHURCHILL      FLURRIES  18  16  93 E18G25    29.80F WCI   2
GILLAM         FLURRIES  28  27  93 E7        29.65S WCI  21
$$
                ***SASKATCHEWAN***

CITY           SKY/WX    TMP DP  RH WIND       PRES   REMARKS
ESTEVAN        FOG       14  12  92 E7        29.31F VSB 1/4 WCI   4
KINDERSLEY     PTCLDY    27  25  93 N8        29.32F WCI  18
LLOYDMINSTER   PTCLDY    27  27 100 NW7       29.36S WCI  19
PRINCE ALBERT  MOCLDY    27  25  93 E3        29.35R
REGINA         CLOUDY    25  23  93 S6        29.30F WCI  18
YORKTON        MOCLDY    18  18 100 S6        29.32F FOG     WCI   9
N. BATTLEFORD  CLOUDY    27  27 100 NW3       29.37R FOG
LA RONGE       CLOUDY    27  27 100 N5        29.41R FOG     WCI  21
SASKATOON      CLOUDY    28  27  93 N6        29.34S WCI  22
SWIFT CURRENT  CLOUDY    32  27  80 W8        29.30S WCI  25
$$
NOTE: THESE ARE AUTOMATED STATIONS WITH LIMITED QUALITY CONTROL
      "FAIR" INDICATES FEW OR NO CLOUDS BELOW 12,000 FEET WITH NO
      SIGNIFICANT WEATHER AND/OR OBSTRUCTIONS TO VISIBILITY.
      SKY/WX - SKY CONDITION AND SIGNIFICANT WEATHER.
      TMP - AIR TEMPERATURE.    DP   - DEWPOINT TEMPERATURE.
      RH  - RELATIVE HUMIDITY.  PRES - PRESSURE.
      HX  - HEAT INDEX.         WCI  - WIND CHILL INDEX.
$




USA.gov is the U.S. government's official web portal to all federal, state and local government web resources and services.